TimeCDT,TemperatureF,Dew PointF,Humidity,Sea Level PressureIn,VisibilityMPH,Wind Direction,Wind SpeedMPH,Gust SpeedMPH,PrecipitationIn,Events,Conditions,WindDirDegrees,DateUTC
12:54 AM,63.0,59.0,87,29.94,10.0,Calm,Calm,-,N/A,,Clear,0,2012-10-26 05:54:00
1:54 AM,62.1,59.0,90,29.96,10.0,Calm,Calm,-,N/A,,Clear,0,2012-10-26 06:54:00
2:54 AM,60.1,57.9,93,29.96,9.0,Calm,Calm,-,N/A,,Clear,0,2012-10-26 07:54:00
3:54 AM,60.1,57.9,93,29.95,10.0,Calm,Calm,-,N/A,,Clear,0,2012-10-26 08:54:00
4:54 AM,59.0,57.9,96,29.95,9.0,Calm,Calm,-,N/A,,Clear,0,2012-10-26 09:54:00
5:54 AM,57.9,55.9,93,29.98,8.0,Calm,Calm,-,N/A,,Clear,0,2012-10-26 10:54:00
6:54 AM,57.9,55.9,93,29.97,8.0,Calm,Calm,-,N/A,,Clear,0,2012-10-26 11:54:00
7:54 AM,62.1,59.0,90,30.01,8.0,Calm,Calm,-,N/A,,Clear,0,2012-10-26 12:54:00
8:54 AM,66.9,61.0,81,30.02,10.0,North,9.2,-,N/A,,Partly Cloudy,10,2012-10-26 13:54:00
9:54 AM,68.0,61.0,78,30.03,10.0,North,9.2,-,N/A,,Scattered Clouds,10,2012-10-26 14:54:00
10:09 AM,66.2,60.8,83,30.04,10.0,North,10.4,-,N/A,,Mostly Cloudy,360,2012-10-26 15:09:00
10:50 AM,66.2,60.8,83,30.04,10.0,North,6.9,-,N/A,,Mostly Cloudy,360,2012-10-26 15:50:00
10:54 AM,66.0,60.1,81,30.03,10.0,North,9.2,-,N/A,,Mostly Cloudy,360,2012-10-26 15:54:00
11:54 AM,68.0,59.0,73,30.03,10.0,North,8.1,-,N/A,,Scattered Clouds,350,2012-10-26 16:54:00
12:54 PM,70.0,57.9,65,30.03,10.0,NNW,6.9,-,N/A,,Mostly Cloudy,340,2012-10-26 17:54:00
1:54 PM,68.0,57.0,68,30.02,10.0,NNW,8.1,-,N/A,,Mostly Cloudy,330,2012-10-26 18:54:00
2:54 PM,66.0,55.0,68,30.01,10.0,NNW,9.2,-,N/A,,Mostly Cloudy,330,2012-10-26 19:54:00
3:54 PM,64.9,55.0,70,29.99,10.0,NW,10.4,-,N/A,,Partly Cloudy,320,2012-10-26 20:54:00
4:30 PM,62.6,53.6,72,30.02,10.0,NW,15.0,24.2,N/A,,Mostly Cloudy,310,2012-10-26 21:30:00
4:54 PM,60.1,52.0,75,30.03,10.0,NW,13.8,19.6,N/A,,Overcast,320,2012-10-26 21:54:00
5:13 PM,55.4,50.0,82,30.04,10.0,NW,12.7,21.9,N/A,,Overcast,320,2012-10-26 22:13:00
5:54 PM,55.0,48.9,80,30.05,10.0,NNW,13.8,-,N/A,,Overcast,330,2012-10-26 22:54:00
6:54 PM,53.1,48.0,83,30.08,10.0,NNW,10.4,18.4,N/A,,Overcast,330,2012-10-26 23:54:00
7:54 PM,51.1,46.0,83,30.09,10.0,North,15.0,-,N/A,,Overcast,350,2012-10-27 00:54:00
8:45 PM,48.2,44.6,87,30.11,10.0,NW,12.7,-,0.00,Rain,Light Rain,320,2012-10-27 01:45:00
8:54 PM,48.9,45.0,86,30.11,10.0,NNW,12.7,-,0.00,,Overcast,330,2012-10-27 01:54:00
9:54 PM,48.0,44.1,86,30.12,10.0,North,19.6,25.3,N/A,,Overcast,350,2012-10-27 02:54:00
10:54 PM,46.9,44.1,90,30.12,8.0,NNW,11.5,-,N/A,,Overcast,340,2012-10-27 03:54:00
11:47 PM,46.4,44.6,93,30.12,6.0,NNW,8.1,-,N/A,,Overcast,330,2012-10-27 04:47:00
11:54 PM,46.9,44.1,90,30.12,7.0,NNW,11.5,18.4,N/A,,Overcast,330,2012-10-27 04:54:00